GSAT0221 (PRN E15) (43564 NORAD) Tracking and Keplerian Element Data

This shows tracking and keplerian element data for the satellite.

Feedback or suggestion? Click here.




ElementValue
Catalog43564
NameGSAT0221 (PRN E15)
Epoch Orbit198
Epoch Day321.97418574
Epoch Year2018
RAAN56.9332
Inclination56.408
Eccentricity0.0004485
Argument of Perigee252.6969
Mean Anonmoly107.2598
Mean Motion1.70476471
Decay Rate-5.6E-07
L11 43564U 18060A 18321.97418574 -.00000056 00000-0 00000+0 0 9998
L22 43564 56.4080 56.9332 0004485 252.6969 107.2598 1.70476471 1982

Live tracking and technical data element details for GSAT0221 (PRN E15) (NORAD 43564). GSAT0221 (PRN E15) can be tracked NOW for your location showing map with azimuth and elevation plus other details from your city location.

Track the satellite on the map from your city or location and see movement details for azimuth, elevation, latitude, longitude, range, height, and movement on the map or in text.







IsCatalogInMostPopularTable: catalog: 43564, numindb: 38
Update: records affected: 1



GetName: 43564 GSAT0221 (PRN E15)

Hit Count: updated at: Tue, 20 Nov 2018 11:46:59 GMT